Wind_Speed
17 15 16 13 15 15 13 11 10 7 7 5 5 3 4 5 5 5 5 5 7 8 9 8 5 3 2 2 2 3 4 2 1 3 4 3 3 1 1 6 3 2 7 6 29
17 16 16 15 15 16 14 12 10 9 7 5 4 4 4 5 4 8 6 7 6 11 9 10 4 4 3 1 2 4 4 6 2 2 4 3 3 6 4 3 2 2 4 21 31
18 17 17 16 16 15 14 13 11 10 9 8 6 5 3 3 1 5 12 10 9 12 8 5 5 4 3 2 1 2 5 4 1 1 1 3 2 1 8 3 6 8 7 14 19
19 18 18 17 17 15 14 13 12 10 8 7 6 4 2 2 5 1 8 10 9 13 7 6 3 4 4 4 2 4 2 3 3 0 1 4 1 2 5 6 1 9 17 16 14
20 19 19 18 17 17 15 13 12 10 8 6 5 3 2 2 6 1 7 10 10 11 7 4 4 4 6 4 3 3 4 3 3 3 3 1 2 3 6 7 2 8 11 15 15
20 21 20 19 17 16 15 13 11 10 8 6 4 4 3 4 2 4 8 10 8 9 6 4 6 4 5 4 4 5 4 5 4 4 1 1 1 1 5 4 6 8 12 12 14
22 21 20 19 19 16 15 14 11 9 7 5 4 4 2 8 3 4 7 8 8 7 5 4 3 2 3 4 3 4 3 4 4 4 2 2 5 8 5 4 4 8 9 9 14
21 21 20 19 18 17 14 13 10 7 6 4 4 4 5 4 6 8 7 7 8 4 4 6 4 5 3 4 5 4 5 2 2 6 2 4 8 4 5 5 8 6 8 9 11
22 22 21 20 18 16 14 11 8 6 5 4 3 3 5 5 6 9 9 8 8 6 4 6 4 3 4 6 4 5 3 4 4 6 3 3 6 5 2 4 3 6 8 9 10
22 21 21 21 19 18 15 11 8 5 4 5 2 1 2 5 5 10 8 11 3 4 4 4 5 4 3 4 6 7 4 4 4 6 2 4 9 8 7 3 9 9 10 9 9
21 23 22 20 19 19 20 10 5 1 6 6 5 3 3 6 8 6 5 6 4 5 5 1 4 7 10 9 4 5 4 3 2 4 4 7 8 10 9 8 9 11 10 11 13
25 24 24 24 23 22 20 4 6 4 4 10 1 0 3 5 4 2 8 5 5 5 4 4 5 10 6 4 5 3 2 4 2 1 2 3 10 10 10 8 9 11 10 11 6
33 29 27 23 22 22 17 12 5 5 3 4 5 4 4 5 5 10 11 5 4 6 6 7 5 7 6 5 6 5 7 5 4 0 2 4 7 6 5 4 6 8 9 6 7
39 34 29 27 18 19 11 24 6 3 2 5 7 7 6 5 3 5 11 6 3 9 9 4 3 9 5 6 6 6 5 5 4 4 4 2 5 6 6 10 6 11 6 6 6
32 37 35 35 12 13 13 23 9 1 4 6 6 5 5 8 8 3 4 3 9 7 7 7 7 6 5 6 5 5 3 5 2 4 2 3 1 7 4 6 6 7 8 7 6
16 38 35 33 12 20 12 19 10 3 7 5 4 7 8 4 2 4 4 2 5 5 3 4 1 5 8 3 3 9 6 8 5 3 3 8 7 5 3 3 2 4 6 6 6
11 17 28 27 9 24 27 8 3 7 3 7 5 6 8 6 5 5 9 7 8 6 4 1 2 1 4 7 4 4 7 3 2 1 6 2 3 7 5 4 2 4 5 6 7
8 8 6 14 17 33 22 8 7 7 7 4 5 7 9 6 3 6 13 12 7 5 4 7 4 8 4 7 9 7 8 6 7 4 4 1 5 3 2 6 4 6 3 5 8
7 4 2 5 10 34 10 10 10 6 7 8 5 6 6 5 6 5 6 12 14 10 9 7 5 1 3 4 11 6 6 6 6 3 3 3 5 1 2 6 5 8 8 8 7
6 5 2 2 1 23 12 8 4 1 3 2 7 6 9 11 7 9 9 6 6 11 2 8 3 1 3 5 0 6 8 3 2 3 3 3 3 5 4 6 6 8 6 6 7
4 3 4 5 5 5 5 4 3 3 1 1 4 6 6 8 7 8 8 5 14 10 5 5 5 0 5 7 9 4 4 2 5 5 6 2 5 4 7 7 6 4 5 7 7
2 3 6 10 1 2 3 6 4 5 3 4 4 4 2 2 8 9 12 4 6 12 17 7 6 5 6 1 1 1 6 6 5 5 2 4 3 3 8 7 6 6 7 6 6
2 2 2 2 3 3 4 5 7 7 6 6 2 2 3 3 3 10 6 1 2 9 14 9 4 4 4 3 1 3 4 4 4 3 8 7 5 6 4 7 6 8 6 6 7
2 3 1 1 0 4 6 6 4 2 5 7 5 6 4 4 5 2 4 2 1 2 7 6 3 10 15 5 9 6 6 6 7 5 4 8 10 8 7 8 5 6 6 7 6
1 3 1 4 4 2 6 9 8 6 2 6 5 8 6 6 5 5 2 4 4 2 4 4 6 3 3 5 3 5 9 12 16 16 14 9 8 14 7 9 7 7 6 6 7
3 2 2 0 5 5 6 9 12 5 7 5 3 12 10 5 5 5 7 2 3 3 3 3 3 3 2 4 4 2 3 7 5 3 0 1 5 6 4 7 7 7 5 7 5
5 0 2 1 3 9 6 3 9 7 1 3 10 8 12 13 3 2 2 5 6 6 3 5 5 3 6 6 5 5 10 6 4 3 6 10 6 7 5 9 8 6 5 5 4
Wind_Direction
198 202 200 202 192 196 197 200 198 202 210 219 236 239 259 279 273 235 227 237 197 176 172 160 142 125 82 66 18 100 71 137 184 205 182 198 122 70 126 113 72 24 156 199 165
205 203 209 197 197 191 196 192 199 196 201 214 231 252 252 270 264 240 231 186 172 178 172 163 145 119 45 52 13 84 102 193 219 200 180 155 137 144 119 113 56 36 19 149 163
202 203 204 199 195 192 193 194 192 200 201 198 205 226 243 290 -0 235 200 190 187 182 184 174 137 122 98 117 174 165 162 199 163 269 119 143 84 231 123 223 191 194 171 155 165
205 202 202 196 192 194 193 196 193 202 202 212 207 209 247 161 192 299 189 188 179 183 171 171 111 112 121 153 176 106 103 165 180 271 105 153 177 167 193 213 238 186 166 168 174
206 201 203 194 192 192 193 196 198 200 207 205 212 190 173 118 251 221 177 178 177 184 183 152 138 138 147 166 117 133 173 140 147 157 130 240 149 221 249 237 317 134 165 179 186
203 206 202 192 191 195 197 197 200 196 206 201 212 194 163 217 195 184 166 172 173 174 190 154 181 189 132 165 153 174 145 157 196 181 101 183 300 21 271 249 166 150 192 191 192
206 205 201 193 190 195 194 195 201 201 194 196 196 177 155 222 193 180 167 173 181 186 167 185 167 110 120 112 154 115 104 340 208 187 157 131 293 236 257 334 148 203 205 215 220
202 204 199 195 189 192 193 193 195 197 192 196 185 177 227 198 181 174 172 165 163 172 172 142 126 101 94 108 36 94 59 125 297 140 186 122 267 277 331 213 250 230 227 230 233
201 202 195 198 187 187 187 186 183 185 197 178 184 174 246 160 189 190 179 162 147 135 119 126 86 99 53 95 42 0 180 199 297 208 129 149 254 254 70 56 283 249 243 223 242
206 205 197 198 185 185 172 166 165 159 191 129 292 66 207 212 165 173 177 158 119 109 52 70 59 91 53 98 192 191 196 224 209 215 118 173 261 275 272 246 262 260 251 248 243
209 206 201 197 187 181 160 138 89 21 232 179 195 229 128 139 136 160 165 136 96 68 148 189 118 186 192 192 161 147 149 155 238 197 137 215 259 269 283 300 263 253 249 247 239
211 209 203 195 189 182 173 175 200 169 195 234 269 253 152 160 103 212 167 136 133 171 117 59 217 214 185 166 177 184 206 231 4 99 156 217 262 260 260 250 244 258 257 248 244
206 208 201 191 187 186 194 194 164 189 150 205 183 168 186 169 190 194 145 145 138 151 169 156 226 153 159 171 174 194 180 197 196 226 291 329 294 317 293 250 265 269 251 273 256
204 198 194 184 177 189 206 194 176 196 93 202 189 230 147 158 231 180 174 141 152 177 152 204 214 149 169 195 149 188 199 156 152 90 231 49 281 308 276 299 311 290 308 268 319
198 193 189 181 170 177 203 187 184 163 196 198 171 136 139 168 141 223 171 69 160 168 130 229 183 153 181 188 164 214 128 141 111 111 69 314 84 269 281 286 279 355 19 64 53
113 176 183 185 179 194 183 184 146 95 239 171 142 161 135 156 74 125 135 71 144 123 56 176 251 163 179 82 138 145 77 47 49 74 289 203 166 279 226 224 342 6 29 44 30
93 141 174 188 195 176 173 150 111 197 211 185 171 155 162 153 146 163 169 172 159 128 166 120 189 173 133 84 41 86 89 27 336 346 230 77 113 246 241 344 140 79 38 13 17
98 104 133 196 191 181 165 131 205 176 209 117 134 132 179 148 194 162 155 190 244 137 123 159 221 168 188 163 167 185 157 163 199 200 242 115 229 237 71 113 99 76 70 35 37
130 96 49 17 205 181 159 187 205 170 171 147 91 139 190 208 139 138 200 199 198 183 160 160 231 136 139 147 151 194 209 165 111 14 60 218 279 83 46 80 72 64 54 35 26
136 112 281 330 350 175 175 206 209 181 147 159 160 162 177 181 157 182 173 192 203 185 211 196 130 316 146 111 306 165 160 89 358 134 239 256 244 210 143 106 67 67 61 35 23
147 113 188 152 13 62 183 178 180 215 128 115 150 153 172 171 170 200 212 218 195 182 140 139 108 256 127 212 160 155 184 165 135 162 182 179 250 225 149 143 131 104 71 49 35
120 130 175 183 122 156 126 158 182 170 109 95 66 80 114 92 181 202 206 235 181 154 193 185 130 167 191 293 331 288 214 156 159 219 212 152 250 94 128 146 124 70 67 53 48
103 115 234 266 186 167 159 155 183 147 165 144 141 88 100 105 265 195 177 333 182 178 171 175 191 119 1 331 2 219 208 152 110 69 197 162 202 163 153 106 97 106 84 69 56
110 135 355 298 311 162 151 172 154 126 147 149 145 145 143 181 230 251 169 156 83 106 66 122 121 204 215 201 136 193 194 196 175 196 162 215 146 181 161 141 116 99 106 102 84
41 221 266 189 204 181 159 168 174 159 144 151 158 171 159 198 191 205 298 136 60 81 58 96 160 121 114 134 98 166 178 182 204 211 204 188 173 172 148 147 145 133 114 83 64
166 163 35 66 154 182 182 199 187 169 152 185 181 178 171 188 203 178 147 261 134 53 83 6 103 109 127 90 76 164 180 198 189 149 235 213 249 138 150 115 108 104 104 79 66
201 319 104 268 146 192 189 186 197 139 309 189 179 165 200 211 135 307 90 131 171 150 123 127 134 148 172 129 98 310 206 192 195 194 179 218 184 152 146 125 121 113 93 80 55
Height
777 780 781 783 785 790 792 794 796 796 797 798 799 798 800 799 798 800 799 798 796 797 799 799 798 800 800 802 804 807 834 842 828 828 821 814 816 814 814 817 818 819 822 819 825
775 777 780 781 784 787 791 792 795 795 796 797 798 798 800 801 799 798 795 794 796 799 799 799 799 799 806 806 808 818 839 829 820 820 819 814 814 816 819 821 824 822 820 820 824
772 773 778 779 782 785 788 791 792 795 796 797 799 800 799 798 799 792 792 794 795 797 798 798 798 799 806 807 810 817 830 819 817 815 813 814 816 814 823 826 821 823 823 822 824
769 772 774 775 778 782 786 789 790 794 794 796 797 797 798 798 808 789 790 793 793 797 797 798 800 805 812 814 809 819 814 815 815 816 814 817 816 817 818 814 808 813 815 820 822
768 769 772 773 776 780 783 787 790 791 793 794 794 795 797 798 795 791 791 793 794 795 795 798 802 805 814 811 811 815 815 816 816 816 815 816 817 817 816 809 809 812 817 818 819
765 769 770 771 774 778 781 784 788 790 792 793 794 795 797 802 791 791 790 792 791 793 797 796 800 800 806 810 814 812 813 817 817 817 816 819 820 816 809 807 811 814 816 816 817
764 766 769 771 774 778 781 783 786 788 791 792 794 794 795 794 790 790 790 791 793 796 796 796 796 801 802 811 811 812 818 818 818 819 817 819 826 822 811 809 810 814 816 816 815
759 765 766 771 772 776 780 783 785 787 789 791 793 794 795 789 790 789 791 792 794 796 795 795 796 802 806 808 816 822 829 837 821 822 818 821 837 815 809 813 813 813 817 816 813
756 763 765 771 771 775 779 783 785 786 790 789 792 792 792 788 789 788 791 791 793 795 796 795 797 807 811 825 837 836 843 840 826 824 822 825 829 814 810 811 811 812 813 813 811
754 759 762 768 769 777 779 783 786 787 791 789 792 795 788 787 785 787 790 791 793 796 799 801 811 820 829 834 850 839 838 833 828 825 823 829 830 819 813 814 814 813 810 808 806
749 756 760 764 768 776 777 783 790 792 790 782 785 784 781 782 785 788 790 791 794 800 811 807 820 828 823 821 820 827 826 824 819 818 823 832 830 823 814 813 812 809 807 805 801
745 752 757 764 768 773 774 775 774 775 787 778 780 782 780 780 787 787 789 794 798 809 809 818 825 816 814 818 819 821 824 827 822 821 823 826 828 821 813 808 801 797 797 797 796
739 747 755 760 767 772 770 770 769 773 777 777 778 780 782 783 785 787 787 794 801 809 812 819 810 809 811 819 822 824 830 828 826 825 825 828 834 822 806 803 795 792 790 790 791
733 741 750 759 770 765 767 767 769 772 784 779 779 775 778 781 785 781 784 788 798 808 814 811 802 810 815 818 818 829 816 819 821 834 847 832 854 833 808 804 797 789 790 787 788
729 736 745 755 755 758 758 765 769 773 801 766 773 768 771 779 779 784 783 786 798 802 809 810 807 809 815 813 812 819 814 821 823 837 840 841 851 832 819 807 796 792 790 790 790
725 730 744 751 751 754 758 763 770 792 801 770 768 770 776 776 782 784 784 784 788 798 803 805 802 804 806 813 808 819 825 836 846 850 855 842 839 837 815 798 792 796 796 793 792
726 732 741 746 748 754 757 763 784 788 758 767 767 767 769 780 784 782 786 791 794 808 812 806 805 804 804 815 815 819 831 859 857 866 851 839 844 827 803 799 799 799 799 796 795
732 736 739 742 746 749 754 772 773 761 756 753 760 766 769 774 779 782 784 789 787 785 807 812 819 807 801 805 817 822 822 848 859 861 845 839 835 813 805 808 805 807 806 803 799
733 734 736 738 739 743 753 763 748 748 746 754 759 767 772 771 774 779 784 777 773 780 786 806 800 797 798 800 801 819 826 822 844 896 863 837 820 802 808 808 808 807 804 806 804
735 737 739 740 738 736 743 749 749 749 748 748 751 755 766 767 770 774 782 768 770 771 768 783 801 799 799 796 801 804 808 830 847 861 855 835 824 816 810 811 808 807 810 809 808
735 737 738 740 739 739 744 753 750 747 746 748 751 754 757 762 765 767 766 757 756 768 769 776 788 806 801 800 802 808 809 808 815 829 835 847 826 807 808 811 811 809 811 812 813
734 738 738 740 745 742 744 750 746 746 749 753 756 758 757 760 762 766 760 757 754 755 764 774 791 815 802 798 798 797 795 798 815 821 822 825 827 805 808 810 811 816 815 815 815
736 739 739 737 739 742 741 742 742 745 749 754 757 758 763 764 759 752 755 758 756 755 757 769 788 811 810 801 801 799 796 794 806 815 818 819 825 811 814 815 815 817 819 820 818
737 738 741 738 736 734 738 743 740 740 746 749 753 756 764 769 768 758 756 757 756 759 758 755 777 767 767 770 786 800 796 793 791 807 811 800 805 817 813 814 816 818 819 820 819
738 736 734 731 737 732 729 735 738 742 742 744 750 753 759 762 764 759 762 757 759 760 762 765 774 781 784 785 785 791 787 789 787 780 788 787 796 796 803 808 813 815 818 818 818
739 739 738 739 730 734 731 735 733 737 738 745 745 747 754 759 755 754 760 758 755 763 765 774 781 784 790 789 789 789 784 788 787 789 791 794 797 793 804 805 811 814 816 816 818
736 735 735 737 739 734 730 734 731 733 740 736 739 745 750 753 757 760 753 756 756 758 767 776 783 783 784 791 798 807 788 789 788 787 787 791 788 797 805 807 811 816 815 815 817